CLUSTER II-FM6 (SALSA)

Last updated on June 19, 2021, 11:39 a.m. UTC

1 26411U 00041B   21171.99528812  .00000731  00000-0  00000-0 0  9996
2 26411 133.6391 346.4474 6410092 196.8997 359.5316  0.44225126 12253
UTC
Height (km)
Latitude
Longitude
Inclination
Orbital Period
UTC large
Height (km)
Speed (km/s)
/
Latitude / Longitude
Inclination (degrees)
Orbital Period (minutes)
Azimuth
Elevation
Range (km)
Doppler Factor
iOS Compass Heading
iOS Angle

Next 30 passes for location: Hong Kong

Rise time Rise Azimuth (degrees) Set time Set Azimuth (degrees) Duration Max altitude (degrees)

No matching passes for this satellites